Flag for United Kingdom Weather past 2 weeks in Liverpool, England, United Kingdom

Now
52 °F

Passing clouds.


Feels Like: 49 °F
Forecast: 45 / 59 °F
Wind: 8 mph from Southeast

Location: Liverpool Airport


UV Index: 3 (Moderate)

Visibility: N/A


Pressure: 30.01 "Hg

Humidity: 94%

Dew point: 50 °F

Location of LiverpoolLocation

Historic Weather in Liverpool

°F

Liverpool temperature yesterday

Maximum temperature yesterday: 57 °F (at 4:20 PM)
Minimum temperature yesterday: 48 °F (at 3:20 AM)
Average temperature yesterday: 53 °F

Past Weeks' High & Low Weather Summary

 TemperatureHumidityPressure
High66 °F (Apr 21, 2:50 PM)94% (Apr 11, 1:20 AM)30.45 "Hg (Apr 11, 1:20 AM)
Low36 °F (Apr 19, 6:20 AM)47% (Apr 18, 3:20 PM)29.68 "Hg (Apr 20, 8:20 PM)
Average51 °F75%30.09 "Hg
* Reported Apr 8 7:20 PM — Apr 23 7:50 PM, Liverpool, Weather by CustomWeather, © 2014

Note: Actual official high and low records may vary slightly from our data, if they occured in-between our weather recording intervals... More about our weather records

Advertising

Historic Weather Conditions — Data for Previous 24 hours

 ConditionsComfort  
Time TempWeatherWind HumidityBarometerVisibility
7:50 PM
Apr 23
54 °FPassing clouds.9 mph88%30.01 "HgN/A
7:20 PM54 °FPassing clouds.7 mph88%29.98 "HgN/A
6:50 PM54 °FPassing clouds.6 mph88%29.98 "HgN/A
6:20 PM54 °FScattered clouds.6 mph88%29.98 "HgN/A
5:50 PM54 °FSprinkles. Scattered clouds.10 mph88%29.98 "HgN/A
5:20 PM55 °FSprinkles. Partly sunny.14 mph82%29.98 "HgN/A
4:50 PM57 °FScattered clouds.16 mph77%29.95 "HgN/A
4:20 PM55 °FSprinkles. Scattered clouds.18 mph88%29.95 "HgN/A
3:50 PM57 °FScattered showers. Passing clouds.20 mph77%29.95 "HgN/A
3:20 PM59 °FScattered clouds.18 mph72%29.95 "HgN/A
2:50 PM57 °FPartly sunny.16 mph77%29.95 "HgN/A
2:20 PM57 °FPartly sunny.14 mph77%29.95 "HgN/A
1:50 PM57 °FPartly sunny.14 mph72%29.95 "HgN/A
1:20 PM59 °FScattered clouds.13 mph72%29.95 "HgN/A
12:50 PM57 °FScattered clouds.14 mph77%29.95 "HgN/A
12:20 PM55 °FBroken clouds.13 mph77%29.95 "HgN/A
11:50 AM55 °FBroken clouds.16 mph77%29.95 "HgN/A
11:20 AM55 °FBroken clouds.16 mph77%29.95 "HgN/A
10:50 AM55 °FPassing clouds.15 mph77%29.95 "HgN/A
10:20 AM54 °FPassing clouds.15 mph82%29.95 "HgN/A
9:50 AM55 °FPassing clouds.17 mph82%29.95 "HgN/A
9:20 AM52 °FPassing clouds.14 mph88%29.95 "HgN/A
8:50 AM52 °FPassing clouds.14 mph88%29.95 "HgN/A
8:20 AM52 °FPassing clouds.13 mph88%29.92 "HgN/A
7:50 AM50 °FPassing clouds.13 mph94%29.92 "HgN/A
7:20 AM50 °FSunny.9 mph88%29.92 "Hg10 mi
6:50 AM48 °FClear.13 mph94%29.92 "Hg10 mi
6:20 AM48 °FClear.13 mph94%29.89 "Hg10 mi
5:50 AM48 °FClear.8 mph87%29.89 "Hg10 mi
5:20 AM50 °FPassing clouds.8 mph82%29.89 "HgN/A
4:50 AM50 °FPassing clouds.8 mph82%29.89 "HgN/A
4:20 AM50 °FPassing clouds.8 mph88%29.89 "HgN/A
3:50 AM50 °FPassing clouds.7 mph94%29.89 "HgN/A
3:20 AM52 °FPassing clouds.8 mph88%29.89 "HgN/A
2:50 AM52 °FPassing clouds.6 mph88%29.86 "HgN/A
2:20 AM52 °FPassing clouds.7 mph88%29.86 "HgN/A
1:50 AM52 °FPassing clouds.7 mph88%29.86 "HgN/A
1:20 AM52 °FPassing clouds.7 mph88%29.86 "HgN/A
12:50 AM52 °FPassing clouds.7 mph88%29.86 "HgN/A
12:20 AM52 °FPassing clouds.6 mph88%29.86 "HgN/A
11:50 PM
Apr 22
50 °FPassing clouds.3 mph94%29.83 "HgN/A
11:20 PM52 °FPassing clouds.3 mph88%29.83 "HgN/A
10:50 PM52 °FPassing clouds.6 mph88%29.83 "HgN/A
10:20 PM52 °FPassing clouds.7 mph88%29.83 "HgN/A
9:20 PM54 °FScattered clouds.5 mph88%29.80 "HgN/A
8:50 PM54 °FScattered clouds.5 mph88%29.80 "HgN/A
8:20 PM54 °FScattered clouds.6 mph88%29.80 "HgN/A
Weather by CustomWeather, © 2014

See weather overview